Terug naar catalogus

SL-8 DEB

ActiefLEO
NORAD 56997·DEBRIS·🇷🇺 Russia

Gelanceerd Oct 13, 1971 vanaf Plesetsk Cosmodrome

Loading…

Volgende Passages (komende 24 uur)

TLE

VerouderdSource: Space-Track

Epoch: Sep 2, 2026, 10:03 UTC

1 56997U 71086K   26245.41941270 -.00000011  00000-0  33283-4 0  9991
2 56997  74.0174 258.9202 0075200 191.2599 236.6523 12.27911245572778

Volg SL-8 DEB in realtime met AllMySat

Download on the App Store